Location: Newark
(44.5208°N, 2.4294°E)
Time: 23:10:45
(UTC+00:00)

Envisat - Pass Details

Date: 01 October 2019
Orbit: 764 x 766 km, 98.1° (Epoch: 14 October)

Event Time Altitude Azimuth Distance (km) Brightness Sun altitude
Rises 19:14:45 0° 210° (SSW) 3,220 6.4 -19.1°
Reaches altitude 10° 19:17:53 10° 231° (SW) 2,299 5.9 -19.6°
Maximum altitude 19:21:04 17° 270° (W) 1,882 6.0 -20.1°
Drops below altitude 10° 19:24:17 10° 310° (NW) 2,309 6.4 -20.7°
Sets 19:27:27 0° 330° (NNW) 3,241 7.0 -21.2°
